Regional Weather Roundup
Issued by NWS

Home | Current Version | Previous Version | Text Only | Print | Product List | Glossary On
Versions: 1 2 3 4 5 6 7 8 9 10 11 12 13 14 15 16 17 18 19 20 21 22 23 24 25 26 27 28 29 30 31 32 33 34 35 36 37 38 39 40 41 42 43 44 45 46 47 48 49 50
000
ASUS43 KMPX 250901
RWRMN
WEATHER ROUNDUP FOR MINNESOTA
NATIONAL WEATHER SERVICE TWIN CITIES/CHANHASSEN MN
400 AM CDT FRI JUL 25 2014


NOTE: "FAIR" INDICATES FEW OR NO CLOUDS BELOW 12,000 FEET WITH NO
SIGNIFICANT WEATHER AND/OR OBSTRUCTIONS TO VISIBILITY. N/A MEANS
CURRENT SKY AND/OR WEATHER CONDITIONS ARE NOT AVAILABLE.

MNZ060>063-068>070-251000-
   Twin Cities Metro

CITY           SKY/WX    TMP DP  RH WIND       PRES   REMARKS
TWIN CITIES    CLOUDY    67  59  75 SE10      29.86F
ST PAUL        CLOUDY    68  60  75 SE13      29.86F
CRYSTAL        CLOUDY    70  58  65 SE13      29.84F
BLAINE         CLOUDY    72  61  68 SE12      29.86F
LAKEVILLE      CLOUDY    64  59  82 E7        29.84F
EDEN PRAIRIE   CLOUDY    67  59  75 SE12      29.83F
SOUTH ST PAUL  CLOUDY    68  59  73 SE7       29.87F
LAKE ELMO      FAIR      64  61  88 S7        29.89F
$$
MNZ001>005-007-008-013>017-022>024-027-028-251000-
   Northwest Minnesota

CITY           SKY/WX    TMP DP  RH WIND       PRES   REMARKS
BEMIDJI        CLOUDY    65  61  89 CALM      29.80F
HALLOCK        CLEAR     66  61  82 S3G9      29.74R
ROSEAU         PTCLDY    63  57  82 E8        29.78F
WARROAD        CLOUDY    63  57  82 SE7       29.79F
THIEF RVR FALL CLOUDY    66  63  88 SE6       29.78F
CROOKSTON      CLOUDY    66  63  88 SE7       29.77F
FOSSTON        LGT RAIN  64  59  82 S6        29.81R
DETROIT LAKES  CLOUDY    66  59  77 SE16      29.80S
MOORHEAD       CLOUDY    68  64  88 SE7       29.76S
PARK RAPIDS    LGT RAIN  66  60  81 S16       29.80F
$$
MNZ006-009>011-018-025>026-251000-
   North Central Minnesota

CITY           SKY/WX    TMP DP  RH WIND       PRES   REMARKS
BAUDETTE       CLOUDY    64  58  80 SE5       29.82F
FLAG ISLAND    MOCLDY    66  61  82 CALM      29.79S
INTL FALLS     LGT RAIN  60  58  92 CALM      29.83S
WASKISH        PTCLDY    61  59  94 CALM      29.81F
BIG FORK       MOCLDY    63  61  94 SE1       29.83F
LONGVILLE      CLOUDY    66  61  82 SW7       29.82F
GRAND RAPIDS   MOCLDY    63  57  82 E8        29.81F
CRANE LAKE     MOCLDY    55  54  94 CALM      29.86R
ORR            CLOUDY    61  55  82 CALM      29.82S
COOK           MOCLDY    63  57  82 CALM      29.85S
$$
MNZ012-019>021-037-251000-
   Northeast Minnesota

CITY           SKY/WX    TMP DP  RH WIND       PRES   REMARKS
DULUTH         CLOUDY    62  57  83 SE6       29.88R
ELY            MOCLDY    57  55  94 S3        29.86S
HIBBING        CLOUDY    62  58  86 SE6       29.85F
EVELETH        CLOUDY    59  55  88 CALM      29.87F
DULUTH HARBOR  MOCLDY    59  55  88 NE6       29.88S
TWO HARBORS    MOCLDY    59  54  82 CALM      29.86S
SILVER BAY     MOCLDY    57  57 100 CALM      29.86S
GRAND MARAIS     N/A     52  50  93 CALM      29.85F
G MARAIS ARPRT PTCLDY    48  46  93 N5        29.90F
$$
MNZ029>031-032-039>041-046>048-054>057-064-251000-
   West Central Minnesota

CITY           SKY/WX    TMP DP  RH WIND       PRES   REMARKS
FERGUS FALLS   CLOUDY    64  61  88 SE18G29   29.72F
WHEATON        CLOUDY    63  61  94 E14       29.72F
MORRIS         LGT RAIN  64  63  94 E13G26    29.70F
ALEXANDRIA     LGT RAIN  63  61  93 E7        29.85S
ELBOW LAKE     LGT RAIN  63  61  95 SE13G41   29.69F
WADENA         LGT RAIN  64  57  77 SE16      29.79F
GLENWOOD       CLOUDY    63  61  94 SE6       29.83S
APPLETON       LGT RAIN  64  63  94 SE15      29.72F
BENSON         LGT RAIN  64  63  94 S16       29.77F
ORTONVILLE     DRIZZLE   64  61  88 S14       29.75R
MADISON        LGT RAIN  66  64  94 SE17      29.72F
WILLMAR        TSTM      64  63  94 SE9       29.82F
$$
MNZ033>034-036-042>043-049>051-058-059-251000-
   Central Minnesota

CITY           SKY/WX    TMP DP  RH WIND       PRES   REMARKS
ST CLOUD       CLOUDY    69  59  70 SE7       29.83F
SAUK CENTRE    TSTM      62  60  93 E7        29.83F
PAYNESVILLE    TSTM      62  60  94 E10G17    29.82F
AITKIN         CLOUDY    70  63  78 S8        29.81F
PINE RIVER     CLOUDY    66  59  77 S12       29.84F
BRAINERD       CLOUDY    66  58  75 S10       29.82F
STAPLES        CLOUDY    64  57  77 S10       29.84R
LONG PRAIRIE   TSTM      61  59  94 SE7       29.86R
LITTLE FALLS   LGT RAIN  64  57  77 SE8       29.83F
LITCHFIELD     TSTM      68  64  88 SW3       29.91R
BUFFALO        CLOUDY    67  58  71 E8        29.84F
MAPLE LAKE     CLOUDY    68  61  78 SE3       29.85F
$$
MNZ037-044-045-052-053-251000-
   East Central Minnesota

CITY           SKY/WX    TMP DP  RH WIND       PRES   REMARKS
PRINCETON      CLOUDY    68  59  73 SE9       29.84F
MORA           MOCLDY    64  57  77 S7        29.87F
CAMBRIDGE      MOCLDY    70  57  64 S8        29.84F
RUSH CITY      CLOUDY    67  59  73 S6        29.87F
MOOSE LAKE     CLOUDY    64  59  82 CALM      29.84S
HINCKLEY       CLOUDY    64  61  88 SE3       29.86S
CLOQUET        CLOUDY    63  57  82 E5        29.87F
$$
MNZ071>073-080-081-089-090-097-098-251000-
   Southwest Minnesota

CITY           SKY/WX    TMP DP  RH WIND       PRES   REMARKS
MONTEVIDEO     CLOUDY    64  64 100 S16       29.78F
GRANITE FALLS  RAIN      64  61  93 E9        29.81F
CANBY          LGT RAIN  65  63  94 S14       29.78F
MARSHALL       CLOUDY    64  63  94 SE9       29.79F
REDWOOD FALLS  TSTM      65  63  93 SE7       29.85R
OLIVIA         TSTM      64  61  88 SE6       29.85R
PIPESTONE      LGT RAIN  64  61  88 SE13      29.81F
WINDOM         TSTM      68  63  83 S10       29.87R
WORTHINGTON    CLOUDY    64  63  94 S10       29.89R
JACKSON        CLOUDY    68  63  83 SE5       29.90R
TRACY          TSTM      66  63  88 SE6       29.86S
SLAYTON        CLOUDY    63  62  96 CALM      29.85F
$$
MNZ065>067-074>077-082>085-091>093-251000-
   South Central Minnesota

CITY           SKY/WX    TMP DP  RH WIND       PRES   REMARKS
MANKATO        CLOUDY    66  57  72 SE17G23   29.80F
NEW ULM        CLOUDY    64  63  94 SW12      29.87R THUNDER
ST JAMES       CLOUDY    48 N/A N/A S13       29.85R
FAIRMONT       CLOUDY    64  61  88 E9        29.82R
GLENCOE        CLOUDY    68  58  71 SE6       29.81F
FARIBAULT      CLOUDY    70  57  64 SE12      29.84F
OWATONNA       CLOUDY    68  57  68 SE15G24   29.85F
WASECA         LGT RAIN  63  55  77 SE9G17    29.86F
ALBERT LEA     LGT RAIN  66  61  82 SE18G24   29.88F
$$
MNZ078>079-086>088-094>096-251000-
   Southeast Minnesota

CITY           SKY/WX    TMP DP  RH WIND       PRES   REMARKS
ROCHESTER      CLOUDY    65  57  75 S13       29.94S
RED WING       CLOUDY    70  59  68 CALM      29.88F
STANTON        CLOUDY    67  59  74 SE7       29.86F
DODGE CENTER   CLOUDY    64  61  88 SE13      29.91F
WINONA         LGT RAIN  70  61  73 SE3       29.94R
AUSTIN         TSTM      64  59  82 S15       29.93F
PRESTON        CLOUDY    64  61  88 S9G20     29.97R
$$
ABBREVIATIONS USED IN REMARKS
   TC - TEMPERATURES IN CELSIUS
  WCI - WIND CHILL INDEX
   HX - HEAT INDEX
  VSB - VISIBILITY
$$



USA.gov is the U.S. government's official web portal to all federal, state and local government web resources and services.